{"data":{"norad_id":54663,"intl_designator":"2022-166X","name":"ONEWEB-0597","alt_names":[],"object_type":"PAYLOAD","status":"ACTIVE","operator":null,"country":"UK","launch_date":"2022-12-08","launch_site_code":"AFETR","launch_vehicle":null,"mission":null,"orbit_class":"UNKNOWN","rcs_meters":null,"size_class":null,"mass_kg":null,"dimensions":null,"purposes":["comms"],"wikipedia_slug":null,"has_3d_model":false,"image_url":null,"decayed_at":null,"tle_current":{"epoch":"2026-05-24T19:43:21.346176Z","epoch_age_seconds":87541,"freshness":"FRESH","line1":"1 54663U 22166X   26144.82177484 -.00000096  00000+0 -26333-3 0  9995","line2":"2 54663  87.9252 248.6369 0002077  98.1390 261.9980 13.21824387168451","mean_motion":13.21824387,"eccentricity":0.0002077,"inclination_deg":87.9252,"raan_deg":248.6369,"arg_perigee_deg":98.139,"mean_anomaly_deg":261.998,"bstar":-0.00026333,"rev_number":16845,"period_min":108.94034140709,"perigee_km":1176.1901555441,"apogee_km":1179.3288749565,"semimajor_km":7555.8965152503,"source":"CELESTRAK","updated_at":"2026-05-25T13:38:22.634425Z"}}}